Year,Month,Day,Hour,Minute,Value (Times are PST for temperature in C)
2019,04,02,00,00,7.80
2019,04,02,00,01,7.80
2019,04,02,00,02,7.90
2019,04,02,00,03,7.90
2019,04,02,00,04,8.00
2019,04,02,00,05,8.00
2019,04,02,00,06,8.10
2019,04,02,00,07,8.10
2019,04,02,00,08,8.20
2019,04,02,00,09,8.20
2019,04,02,00,10,8.20
2019,04,02,00,11,8.30
2019,04,02,00,12,8.30
2019,04,02,00,13,8.30
2019,04,02,00,14,8.30
2019,04,02,00,15,8.20
2019,04,02,00,16,8.10
2019,04,02,00,17,8.10
2019,04,02,00,18,8.00
2019,04,02,00,19,7.90
2019,04,02,00,20,7.80
2019,04,02,00,21,7.70
2019,04,02,00,22,7.70
2019,04,02,00,23,7.60
2019,04,02,00,24,7.50
2019,04,02,00,25,7.40
2019,04,02,00,26,7.40
2019,04,02,00,27,7.30
2019,04,02,00,28,7.30
2019,04,02,00,29,7.30
2019,04,02,00,30,7.30
2019,04,02,00,31,7.30
2019,04,02,00,32,7.40
2019,04,02,00,33,7.40
2019,04,02,00,34,7.40
2019,04,02,00,35,7.50
2019,04,02,00,36,7.50
2019,04,02,00,37,7.50
2019,04,02,00,38,7.60
2019,04,02,00,39,7.60
2019,04,02,00,40,7.60
2019,04,02,00,41,7.70
2019,04,02,00,42,7.70
2019,04,02,00,43,7.70
2019,04,02,00,44,7.80
2019,04,02,00,45,7.80
2019,04,02,00,46,7.80
2019,04,02,00,47,7.80
2019,04,02,00,48,7.90
2019,04,02,00,49,7.90
2019,04,02,00,50,7.90
2019,04,02,00,51,7.90
2019,04,02,00,52,7.90
2019,04,02,00,53,7.90
2019,04,02,00,54,8.00
2019,04,02,00,55,8.00
2019,04,02,00,56,8.00
2019,04,02,00,57,8.00
2019,04,02,00,58,8.00
2019,04,02,00,59,8.00
2019,04,02,01,00,7.90
2019,04,02,01,01,7.90
2019,04,02,01,02,7.90
2019,04,02,01,03,7.80
2019,04,02,01,04,7.70
2019,04,02,01,05,7.60
2019,04,02,01,06,7.50
2019,04,02,01,07,7.50
2019,04,02,01,08,7.40
2019,04,02,01,09,7.40
2019,04,02,01,10,7.30
2019,04,02,01,11,7.30
2019,04,02,01,12,7.30
2019,04,02,01,13,7.30
2019,04,02,01,14,7.20
2019,04,02,01,15,7.20
2019,04,02,01,16,7.20
2019,04,02,01,17,7.20
2019,04,02,01,18,7.20
2019,04,02,01,19,7.10
2019,04,02,01,20,7.10
2019,04,02,01,21,7.10
2019,04,02,01,22,7.10
2019,04,02,01,23,7.10
2019,04,02,01,24,7.10
2019,04,02,01,25,7.00
2019,04,02,01,26,7.00
2019,04,02,01,27,7.00
2019,04,02,01,28,7.00
2019,04,02,01,29,7.00
2019,04,02,01,30,7.00
2019,04,02,01,31,7.00
2019,04,02,01,32,7.00
2019,04,02,01,33,7.00
2019,04,02,01,34,7.00
2019,04,02,01,35,7.00
2019,04,02,01,36,7.00
2019,04,02,01,37,6.90
2019,04,02,01,38,6.90
2019,04,02,01,39,6.90
2019,04,02,01,40,6.90
2019,04,02,01,41,7.00
2019,04,02,01,42,6.90
2019,04,02,01,43,7.00
2019,04,02,01,44,7.00
2019,04,02,01,45,6.90
2019,04,02,01,46,6.90
2019,04,02,01,47,6.90
2019,04,02,01,48,6.90
2019,04,02,01,49,6.90
2019,04,02,01,50,6.90
2019,04,02,01,51,6.90
2019,04,02,01,52,6.90
2019,04,02,01,53,6.90
2019,04,02,01,54,6.90
2019,04,02,01,55,6.90
2019,04,02,01,56,6.90
2019,04,02,01,57,6.90
2019,04,02,01,58,6.80
2019,04,02,01,59,6.80
2019,04,02,02,00,6.80
2019,04,02,02,01,6.70
2019,04,02,02,02,6.60
2019,04,02,02,03,6.60
2019,04,02,02,04,6.50
2019,04,02,02,05,6.40
2019,04,02,02,06,6.40
2019,04,02,02,07,6.30
2019,04,02,02,08,6.30
2019,04,02,02,09,6.30
2019,04,02,02,10,6.30
2019,04,02,02,11,6.30
2019,04,02,02,12,6.30
2019,04,02,02,13,6.30
2019,04,02,02,14,6.30
2019,04,02,02,15,6.20
2019,04,02,02,16,6.20
2019,04,02,02,17,6.20
2019,04,02,02,18,6.10
2019,04,02,02,19,6.10
2019,04,02,02,20,6.00
2019,04,02,02,21,5.90
2019,04,02,02,22,5.90
2019,04,02,02,23,5.80
2019,04,02,02,24,5.80
2019,04,02,02,25,5.80
2019,04,02,02,26,5.70
2019,04,02,02,27,5.70
2019,04,02,02,28,5.70
2019,04,02,02,29,5.60
2019,04,02,02,30,5.60
2019,04,02,02,31,5.60
2019,04,02,02,32,5.60
2019,04,02,02,33,5.60
2019,04,02,02,34,5.60
2019,04,02,02,35,5.70
2019,04,02,02,36,5.70
2019,04,02,02,37,5.60
2019,04,02,02,38,5.60
2019,04,02,02,39,5.60
2019,04,02,02,40,5.70
2019,04,02,02,41,5.70
2019,04,02,02,42,5.70
2019,04,02,02,43,5.80
2019,04,02,02,44,5.90
2019,04,02,02,45,5.90
2019,04,02,02,46,6.00
2019,04,02,02,47,6.00
2019,04,02,02,48,6.10
2019,04,02,02,49,6.10
2019,04,02,02,50,6.10
2019,04,02,02,51,6.10
2019,04,02,02,52,6.20
2019,04,02,02,53,6.20
2019,04,02,02,54,6.20
2019,04,02,02,55,6.20
2019,04,02,02,56,6.20
2019,04,02,02,57,6.20
2019,04,02,02,58,6.20
2019,04,02,02,59,6.10
2019,04,02,03,00,6.10
2019,04,02,03,01,6.10
2019,04,02,03,02,6.00
2019,04,02,03,03,6.00
2019,04,02,03,04,6.00
2019,04,02,03,05,5.90
2019,04,02,03,06,5.90
2019,04,02,03,07,5.90
2019,04,02,03,08,5.90
2019,04,02,03,09,5.90
2019,04,02,03,10,5.90
2019,04,02,03,11,5.80
2019,04,02,03,12,5.80
2019,04,02,03,13,5.80
2019,04,02,03,14,5.80
2019,04,02,03,15,5.80
2019,04,02,03,16,5.80
2019,04,02,03,17,5.80
2019,04,02,03,18,5.80
2019,04,02,03,19,5.80
2019,04,02,03,20,5.70
2019,04,02,03,21,5.70
2019,04,02,03,22,5.70
2019,04,02,03,23,5.70
2019,04,02,03,24,5.70
2019,04,02,03,25,5.70
2019,04,02,03,26,5.60
2019,04,02,03,27,5.60
2019,04,02,03,28,5.50
2019,04,02,03,29,5.50
2019,04,02,03,30,5.40
2019,04,02,03,31,5.30
2019,04,02,03,32,5.30
2019,04,02,03,33,5.20
2019,04,02,03,34,5.20
2019,04,02,03,35,5.10
2019,04,02,03,36,5.10
2019,04,02,03,37,5.10
2019,04,02,03,38,5.00
2019,04,02,03,39,5.00
2019,04,02,03,40,5.00
2019,04,02,03,41,4.90
2019,04,02,03,42,4.90
2019,04,02,03,43,4.90
2019,04,02,03,44,4.90
2019,04,02,03,45,4.90
2019,04,02,03,46,4.90
2019,04,02,03,47,5.00
2019,04,02,03,48,5.00
2019,04,02,03,49,5.10
2019,04,02,03,50,5.10
2019,04,02,03,51,5.20
2019,04,02,03,52,5.30
2019,04,02,03,53,5.30
2019,04,02,03,54,5.40
2019,04,02,03,55,5.40
2019,04,02,03,56,5.50
2019,04,02,03,57,5.50
2019,04,02,03,58,5.50
2019,04,02,03,59,5.60
2019,04,02,04,00,5.60
2019,04,02,04,01,5.60
2019,04,02,04,02,5.60
2019,04,02,04,03,5.60
2019,04,02,04,04,5.50
2019,04,02,04,05,5.50
2019,04,02,04,06,5.50
2019,04,02,04,07,5.40
2019,04,02,04,08,5.40
2019,04,02,04,09,5.40
2019,04,02,04,10,5.40
2019,04,02,04,11,5.30
2019,04,02,04,12,5.30
2019,04,02,04,13,5.30
2019,04,02,04,14,5.30
2019,04,02,04,15,5.30
2019,04,02,04,16,5.30
2019,04,02,04,17,5.30
2019,04,02,04,18,5.30
2019,04,02,04,19,5.30
2019,04,02,04,20,5.30
2019,04,02,04,21,5.30
2019,04,02,04,22,5.30
2019,04,02,04,23,5.30
2019,04,02,04,24,5.30
2019,04,02,04,25,5.30
2019,04,02,04,26,5.30
2019,04,02,04,27,5.30
2019,04,02,04,28,5.30
2019,04,02,04,29,5.20
2019,04,02,04,30,5.20
2019,04,02,04,31,5.20
2019,04,02,04,32,5.10
2019,04,02,04,33,5.10
2019,04,02,04,34,5.10
2019,04,02,04,35,5.10
2019,04,02,04,36,5.10
2019,04,02,04,37,5.10
2019,04,02,04,38,5.10
2019,04,02,04,39,5.10
2019,04,02,04,40,5.20
2019,04,02,04,41,5.20
2019,04,02,04,42,5.20
2019,04,02,04,43,5.20
2019,04,02,04,44,5.20
2019,04,02,04,45,5.20
2019,04,02,04,46,5.10
2019,04,02,04,47,5.10
2019,04,02,04,48,5.10
2019,04,02,04,49,5.00
2019,04,02,04,50,5.00
2019,04,02,04,51,4.90
2019,04,02,04,52,4.90
2019,04,02,04,53,4.90
2019,04,02,04,54,4.90
2019,04,02,04,55,4.80
2019,04,02,04,56,4.80
2019,04,02,04,57,4.80
2019,04,02,04,58,4.80
2019,04,02,04,59,4.80
2019,04,02,05,00,4.70
2019,04,02,05,01,4.80
2019,04,02,05,02,4.80
2019,04,02,05,03,4.70
2019,04,02,05,04,4.70
2019,04,02,05,05,4.70
2019,04,02,05,06,4.70
2019,04,02,05,07,4.70
2019,04,02,05,08,4.70
2019,04,02,05,09,4.70
2019,04,02,05,10,4.70
2019,04,02,05,11,4.70
2019,04,02,05,12,4.70
2019,04,02,05,13,4.70
2019,04,02,05,14,4.70
2019,04,02,05,15,4.70
2019,04,02,05,16,4.80
2019,04,02,05,17,4.80
2019,04,02,05,18,4.80
2019,04,02,05,19,4.80
2019,04,02,05,20,4.70
2019,04,02,05,21,4.70
2019,04,02,05,22,4.70
2019,04,02,05,23,4.70
2019,04,02,05,24,4.70
2019,04,02,05,25,4.70
2019,04,02,05,26,4.70
2019,04,02,05,27,4.70
2019,04,02,05,28,4.70
2019,04,02,05,29,4.70
2019,04,02,05,30,4.60
2019,04,02,05,31,4.60
2019,04,02,05,32,4.60
2019,04,02,05,33,4.60
2019,04,02,05,34,4.60
2019,04,02,05,35,4.60
2019,04,02,05,36,4.60
2019,04,02,05,37,4.60
2019,04,02,05,38,4.60
2019,04,02,05,39,4.60
2019,04,02,05,40,4.60
2019,04,02,05,41,4.60
2019,04,02,05,42,4.60
2019,04,02,05,43,4.60
2019,04,02,05,44,4.50
2019,04,02,05,45,4.50
2019,04,02,05,46,4.40
2019,04,02,05,47,4.40
2019,04,02,05,48,4.40
2019,04,02,05,49,4.40
2019,04,02,05,50,4.40
2019,04,02,05,51,4.30
2019,04,02,05,52,4.30
2019,04,02,05,53,4.30
2019,04,02,05,54,4.30
2019,04,02,05,55,4.30
2019,04,02,05,56,4.30
2019,04,02,05,57,4.30
2019,04,02,05,58,4.30
2019,04,02,05,59,4.30
2019,04,02,06,00,4.30
2019,04,02,06,01,4.20
2019,04,02,06,02,4.20
2019,04,02,06,03,4.10
2019,04,02,06,04,4.10
2019,04,02,06,05,4.00
2019,04,02,06,06,4.00
2019,04,02,06,07,4.00
2019,04,02,06,08,4.00
2019,04,02,06,09,4.00
2019,04,02,06,10,4.00
2019,04,02,06,11,4.00
2019,04,02,06,12,4.00
2019,04,02,06,13,4.10
2019,04,02,06,14,4.10
2019,04,02,06,15,4.10
2019,04,02,06,16,4.10
2019,04,02,06,17,4.10
2019,04,02,06,18,4.10
2019,04,02,06,19,4.10
2019,04,02,06,20,4.10
2019,04,02,06,21,4.10
2019,04,02,06,22,4.00
2019,04,02,06,23,4.00
2019,04,02,06,24,4.00
2019,04,02,06,25,4.00
2019,04,02,06,26,3.90
2019,04,02,06,27,3.90
2019,04,02,06,28,3.90
2019,04,02,06,29,3.90
2019,04,02,06,30,3.90
2019,04,02,06,31,3.90
2019,04,02,06,32,3.90
2019,04,02,06,33,3.80
2019,04,02,06,34,3.80
2019,04,02,06,35,3.80
2019,04,02,06,36,3.80
2019,04,02,06,37,3.70
2019,04,02,06,38,3.70
2019,04,02,06,39,3.70
2019,04,02,06,40,3.70
2019,04,02,06,41,3.70
2019,04,02,06,42,3.70
2019,04,02,06,43,3.70
2019,04,02,06,44,3.70
2019,04,02,06,45,3.70
2019,04,02,06,46,3.70
2019,04,02,06,47,3.70
2019,04,02,06,48,3.70
2019,04,02,06,49,3.70
2019,04,02,06,50,3.70
2019,04,02,06,51,3.60
2019,04,02,06,52,3.60
2019,04,02,06,53,3.60
2019,04,02,06,54,3.50
2019,04,02,06,55,3.50
2019,04,02,06,56,3.50
2019,04,02,06,57,3.40
2019,04,02,06,58,3.40
2019,04,02,06,59,3.40
2019,04,02,07,00,3.40
2019,04,02,07,01,3.40
2019,04,02,07,02,3.40
2019,04,02,07,03,3.30
2019,04,02,07,04,3.30
2019,04,02,07,05,3.30
2019,04,02,07,06,3.30
2019,04,02,07,07,3.30
2019,04,02,07,08,3.30
2019,04,02,07,09,3.30
2019,04,02,07,10,3.30
2019,04,02,07,11,3.30
2019,04,02,07,12,3.30
2019,04,02,07,13,3.30
2019,04,02,07,14,3.30
2019,04,02,07,15,3.30
2019,04,02,07,16,3.30
2019,04,02,07,17,3.30
2019,04,02,07,18,3.30
2019,04,02,07,19,3.30
2019,04,02,07,20,3.40
2019,04,02,07,21,3.40
2019,04,02,07,22,3.50
2019,04,02,07,23,3.50
2019,04,02,07,24,3.60
2019,04,02,07,25,3.60
2019,04,02,07,26,3.60
2019,04,02,07,27,3.70
2019,04,02,07,28,3.70
2019,04,02,07,29,3.70
2019,04,02,07,30,3.70
2019,04,02,07,31,3.70
2019,04,02,07,32,3.70
2019,04,02,07,33,3.70
2019,04,02,07,34,3.70
2019,04,02,07,35,3.70
2019,04,02,07,36,3.70
2019,04,02,07,37,3.70
2019,04,02,07,38,3.70
2019,04,02,07,39,3.70
2019,04,02,07,40,3.70
2019,04,02,07,41,3.70
2019,04,02,07,42,3.70
2019,04,02,07,43,3.70
2019,04,02,07,44,3.80
2019,04,02,07,45,3.80
2019,04,02,07,46,3.80
2019,04,02,07,47,3.90
2019,04,02,07,48,3.90
2019,04,02,07,49,3.90
2019,04,02,07,50,4.00
2019,04,02,07,51,4.00
2019,04,02,07,52,4.10
2019,04,02,07,53,4.10
2019,04,02,07,54,4.10
2019,04,02,07,55,4.20
2019,04,02,07,56,4.20
2019,04,02,07,57,4.20
2019,04,02,07,58,4.30
2019,04,02,07,59,4.30
2019,04,02,08,00,4.30
2019,04,02,08,01,4.40
2019,04,02,08,02,4.40
2019,04,02,08,03,4.50
2019,04,02,08,04,4.60
2019,04,02,08,05,4.60
2019,04,02,08,06,4.70
2019,04,02,08,07,4.80
2019,04,02,08,08,4.90
2019,04,02,08,09,4.90
2019,04,02,08,10,5.00
2019,04,02,08,11,5.10
2019,04,02,08,12,5.20
2019,04,02,08,13,5.30
2019,04,02,08,14,5.40
2019,04,02,08,15,5.50
2019,04,02,08,16,5.60
2019,04,02,08,17,5.70
2019,04,02,08,18,5.80
2019,04,02,08,19,5.80
2019,04,02,08,20,5.90
2019,04,02,08,21,6.00
2019,04,02,08,22,6.10
2019,04,02,08,23,6.10
2019,04,02,08,24,6.20
2019,04,02,08,25,6.20
2019,04,02,08,26,6.30
2019,04,02,08,27,6.40
2019,04,02,08,28,6.40
2019,04,02,08,29,6.50
2019,04,02,08,30,6.50
2019,04,02,08,31,6.60
2019,04,02,08,32,6.70
2019,04,02,08,33,6.70
2019,04,02,08,34,6.80
2019,04,02,08,35,6.80
2019,04,02,08,36,6.90
2019,04,02,08,37,7.00
2019,04,02,08,38,7.00
2019,04,02,08,39,7.10
2019,04,02,08,40,7.10
2019,04,02,08,41,7.20
2019,04,02,08,42,7.20
2019,04,02,08,43,7.30
2019,04,02,08,44,7.40
2019,04,02,08,45,7.50
2019,04,02,08,46,7.50
2019,04,02,08,47,7.60
2019,04,02,08,48,7.70
2019,04,02,08,49,7.70
2019,04,02,08,50,7.80
2019,04,02,08,51,7.80
2019,04,02,08,52,7.80
2019,04,02,08,53,7.80
2019,04,02,08,54,7.90
2019,04,02,08,55,7.90
2019,04,02,08,56,7.90
2019,04,02,08,57,8.00
2019,04,02,08,58,8.00
2019,04,02,08,59,8.00
2019,04,02,09,00,8.10
2019,04,02,09,01,8.10
2019,04,02,09,02,8.10
2019,04,02,09,03,8.20
2019,04,02,09,04,8.20
2019,04,02,09,05,8.20
2019,04,02,09,06,8.30
2019,04,02,09,07,8.30
2019,04,02,09,08,8.40
2019,04,02,09,09,8.50
2019,04,02,09,10,8.50
2019,04,02,09,11,8.60
2019,04,02,09,12,8.70
2019,04,02,09,13,8.70
2019,04,02,09,14,8.80
2019,04,02,09,15,8.90
2019,04,02,09,16,8.90
2019,04,02,09,17,9.00
2019,04,02,09,18,9.00
2019,04,02,09,19,9.10
2019,04,02,09,20,9.10
2019,04,02,09,21,9.20
2019,04,02,09,22,9.20
2019,04,02,09,23,9.30
2019,04,02,09,24,9.30
2019,04,02,09,25,9.30
2019,04,02,09,26,9.40
2019,04,02,09,27,9.40
2019,04,02,09,28,9.50
2019,04,02,09,29,9.60
2019,04,02,09,30,9.60
2019,04,02,09,31,9.70
2019,04,02,09,32,9.80
2019,04,02,09,33,9.90
2019,04,02,09,34,10.00
2019,04,02,09,35,10.10
2019,04,02,09,36,10.20
2019,04,02,09,37,10.30
2019,04,02,09,38,10.30
2019,04,02,09,39,10.40
2019,04,02,09,40,10.50
2019,04,02,09,41,10.60
2019,04,02,09,42,10.60
2019,04,02,09,43,10.70
2019,04,02,09,44,10.80
2019,04,02,09,45,10.90
2019,04,02,09,46,11.00
2019,04,02,09,47,11.10
2019,04,02,09,48,11.20
2019,04,02,09,49,11.30
2019,04,02,09,50,11.40
2019,04,02,09,51,11.50
2019,04,02,09,52,11.60
2019,04,02,09,53,11.70
2019,04,02,09,54,11.80
2019,04,02,09,55,11.80
2019,04,02,09,56,11.90
2019,04,02,09,57,11.90
2019,04,02,09,58,11.80
2019,04,02,09,59,11.80
2019,04,02,10,00,11.80
2019,04,02,10,01,11.80
2019,04,02,10,02,11.80
2019,04,02,10,03,11.90
2019,04,02,10,04,11.90
2019,04,02,10,05,12.00
2019,04,02,10,06,12.10
2019,04,02,10,07,12.10
2019,04,02,10,08,12.20
2019,04,02,10,09,12.20
2019,04,02,10,10,12.30
2019,04,02,10,11,12.30
2019,04,02,10,12,12.30
2019,04,02,10,13,12.30
2019,04,02,10,14,12.40
2019,04,02,10,15,12.40
2019,04,02,10,16,12.40
2019,04,02,10,17,12.40
2019,04,02,10,18,12.50
2019,04,02,10,19,12.50
2019,04,02,10,20,12.60
2019,04,02,10,21,12.60
2019,04,02,10,22,12.70
2019,04,02,10,23,12.70
2019,04,02,10,24,12.80
2019,04,02,10,25,12.80
2019,04,02,10,26,12.90
2019,04,02,10,27,13.00
2019,04,02,10,28,13.00
2019,04,02,10,29,13.10
2019,04,02,10,30,13.10
2019,04,02,10,31,13.20
2019,04,02,10,32,13.20
2019,04,02,10,33,13.30
2019,04,02,10,34,13.40
2019,04,02,10,35,13.50
2019,04,02,10,36,13.60
2019,04,02,10,37,13.60
2019,04,02,10,38,13.70
2019,04,02,10,39,13.80
2019,04,02,10,40,13.90
2019,04,02,10,41,13.90
2019,04,02,10,42,14.00
2019,04,02,10,43,14.00
2019,04,02,10,44,14.00
2019,04,02,10,45,14.00
2019,04,02,10,46,14.10
2019,04,02,10,47,14.10
2019,04,02,10,48,14.10
2019,04,02,10,49,14.20
2019,04,02,10,50,14.30
2019,04,02,10,51,14.30
2019,04,02,10,52,14.40
2019,04,02,10,53,14.50
2019,04,02,10,54,14.60
2019,04,02,10,55,14.70
2019,04,02,10,56,14.80
2019,04,02,10,57,14.80
2019,04,02,10,58,14.80
2019,04,02,10,59,14.80
2019,04,02,11,00,14.80
2019,04,02,11,01,14.80
2019,04,02,11,02,14.80
2019,04,02,11,03,14.80
2019,04,02,11,04,14.80
2019,04,02,11,05,14.80
2019,04,02,11,06,14.70
2019,04,02,11,07,14.70
2019,04,02,11,08,14.70
2019,04,02,11,09,14.70
2019,04,02,11,10,14.60
2019,04,02,11,11,14.60
2019,04,02,11,12,14.60
2019,04,02,11,13,14.60
2019,04,02,11,14,14.60
2019,04,02,11,15,14.60
2019,04,02,11,16,14.60
2019,04,02,11,17,14.60
2019,04,02,11,18,14.70
2019,04,02,11,19,14.70
2019,04,02,11,20,14.80
2019,04,02,11,21,14.80
2019,04,02,11,22,14.80
2019,04,02,11,23,14.80
2019,04,02,11,24,14.90
2019,04,02,11,25,14.90
2019,04,02,11,26,14.90
2019,04,02,11,27,14.90
2019,04,02,11,28,15.00
2019,04,02,11,29,15.00
2019,04,02,11,30,15.10
2019,04,02,11,31,15.10
2019,04,02,11,32,15.20
2019,04,02,11,33,15.20
2019,04,02,11,34,15.30
2019,04,02,11,35,15.30
2019,04,02,11,36,15.40
2019,04,02,11,37,15.40
2019,04,02,11,38,15.50
2019,04,02,11,39,15.60
2019,04,02,11,40,15.70
2019,04,02,11,41,15.70
2019,04,02,11,42,15.70
2019,04,02,11,43,15.80
2019,04,02,11,44,15.80
2019,04,02,11,45,15.80
2019,04,02,11,46,15.90
2019,04,02,11,47,15.90
2019,04,02,11,48,16.00
2019,04,02,11,49,16.00
2019,04,02,11,50,16.10
2019,04,02,11,51,16.10
2019,04,02,11,52,16.00
2019,04,02,11,53,16.00
2019,04,02,11,54,16.00
2019,04,02,11,55,16.00
2019,04,02,11,56,16.00
2019,04,02,11,57,16.00
2019,04,02,11,58,16.10
2019,04,02,11,59,16.10
2019,04,02,12,00,16.10
2019,04,02,12,01,16.10
2019,04,02,12,02,16.20
2019,04,02,12,03,16.20
2019,04,02,12,04,16.30
2019,04,02,12,05,16.30
2019,04,02,12,06,16.30
2019,04,02,12,07,16.40
2019,04,02,12,08,16.50
2019,04,02,12,09,16.60
2019,04,02,12,10,16.70
2019,04,02,12,11,16.80
2019,04,02,12,12,16.90
2019,04,02,12,13,17.00
2019,04,02,12,14,17.00
2019,04,02,12,15,17.10
2019,04,02,12,16,17.10
2019,04,02,12,17,17.20
2019,04,02,12,18,17.20
2019,04,02,12,19,17.20
2019,04,02,12,20,17.30
2019,04,02,12,21,17.40
2019,04,02,12,22,17.40
2019,04,02,12,23,17.40
2019,04,02,12,24,17.50
2019,04,02,12,25,17.50
2019,04,02,12,26,17.60
2019,04,02,12,27,17.70
2019,04,02,12,28,17.80
2019,04,02,12,29,17.80
2019,04,02,12,30,17.80
2019,04,02,12,31,17.70
2019,04,02,12,32,17.70
2019,04,02,12,33,17.70
2019,04,02,12,34,17.60
2019,04,02,12,35,17.50
2019,04,02,12,36,17.50
2019,04,02,12,37,17.50
2019,04,02,12,38,17.50
2019,04,02,12,39,17.60
2019,04,02,12,40,17.60
2019,04,02,12,41,17.60
2019,04,02,12,42,17.60
2019,04,02,12,43,17.50
2019,04,02,12,44,17.50
2019,04,02,12,45,17.40
2019,04,02,12,46,17.40
2019,04,02,12,47,17.40
2019,04,02,12,48,17.40
2019,04,02,12,49,17.40
2019,04,02,12,50,17.40
2019,04,02,12,51,17.40
2019,04,02,12,52,17.40
2019,04,02,12,53,17.40
2019,04,02,12,54,17.40
2019,04,02,12,55,17.50
2019,04,02,12,56,17.50
2019,04,02,12,57,17.50
2019,04,02,12,58,17.50
2019,04,02,12,59,17.50
2019,04,02,13,00,17.60
2019,04,02,13,01,17.60
2019,04,02,13,02,17.60
2019,04,02,13,03,17.60
2019,04,02,13,04,17.60
2019,04,02,13,05,17.60
2019,04,02,13,06,17.60
2019,04,02,13,07,17.50
2019,04,02,13,08,17.50
2019,04,02,13,09,17.40
2019,04,02,13,10,17.30
2019,04,02,13,11,17.30
2019,04,02,13,12,17.30
2019,04,02,13,13,17.30
2019,04,02,13,14,17.30
2019,04,02,13,15,17.30
2019,04,02,13,16,17.40
2019,04,02,13,17,17.40
2019,04,02,13,18,17.40
2019,04,02,13,19,17.40
2019,04,02,13,20,17.40
2019,04,02,13,21,17.40
2019,04,02,13,22,17.40
2019,04,02,13,23,17.40
2019,04,02,13,24,17.40
2019,04,02,13,25,17.40
2019,04,02,13,26,17.40
2019,04,02,13,27,17.50
2019,04,02,13,28,17.50
2019,04,02,13,29,17.50
2019,04,02,13,30,17.50
2019,04,02,13,31,17.50
2019,04,02,13,32,17.50
2019,04,02,13,33,17.50
2019,04,02,13,34,17.50
2019,04,02,13,35,17.60
2019,04,02,13,36,17.60
2019,04,02,13,37,17.60
2019,04,02,13,38,17.60
2019,04,02,13,39,17.70
2019,04,02,13,40,17.70
2019,04,02,13,41,17.70
2019,04,02,13,42,17.70
2019,04,02,13,43,17.70
2019,04,02,13,44,17.70
2019,04,02,13,45,17.70
2019,04,02,13,46,17.70
2019,04,02,13,47,17.70
2019,04,02,13,48,17.70
2019,04,02,13,49,17.70
2019,04,02,13,50,17.70
2019,04,02,13,51,17.70
2019,04,02,13,52,17.70
2019,04,02,13,53,17.70
2019,04,02,13,54,17.70
2019,04,02,13,55,17.70
2019,04,02,13,56,17.70
2019,04,02,13,57,17.60
2019,04,02,13,58,17.60
2019,04,02,13,59,17.60
2019,04,02,14,00,17.60
2019,04,02,14,01,17.70
2019,04,02,14,02,17.70
2019,04,02,14,03,17.70
2019,04,02,14,04,17.70
2019,04,02,14,05,17.70
2019,04,02,14,06,17.70
2019,04,02,14,07,17.70
2019,04,02,14,08,17.70
2019,04,02,14,09,17.80
2019,04,02,14,10,17.80
2019,04,02,14,11,17.80
2019,04,02,14,12,17.90
2019,04,02,14,13,17.90
2019,04,02,14,14,17.90
2019,04,02,14,15,18.00
2019,04,02,14,16,18.00
2019,04,02,14,17,18.10
2019,04,02,14,18,18.10
2019,04,02,14,19,18.10
2019,04,02,14,20,18.20
2019,04,02,14,21,18.20
2019,04,02,14,22,18.20
2019,04,02,14,23,18.20
2019,04,02,14,24,18.20
2019,04,02,14,25,18.20
2019,04,02,14,26,18.20
2019,04,02,14,27,18.20
2019,04,02,14,28,18.20
2019,04,02,14,29,18.30
2019,04,02,14,30,18.30
2019,04,02,14,31,18.30
2019,04,02,14,32,18.30
2019,04,02,14,33,18.30
2019,04,02,14,34,18.30
2019,04,02,14,35,18.30
2019,04,02,14,36,18.30
2019,04,02,14,37,18.30
2019,04,02,14,38,18.30
2019,04,02,14,39,18.30
2019,04,02,14,40,18.30
2019,04,02,14,41,18.30
2019,04,02,14,42,18.30
2019,04,02,14,43,18.30
2019,04,02,14,44,18.30
2019,04,02,14,45,18.30
2019,04,02,14,46,18.40
2019,04,02,14,47,18.50
2019,04,02,14,48,18.60
2019,04,02,14,49,18.60
2019,04,02,14,50,18.70
2019,04,02,14,51,18.70
2019,04,02,14,52,18.70
2019,04,02,14,53,18.70
2019,04,02,14,54,18.70
2019,04,02,14,55,18.70
2019,04,02,14,56,18.70
2019,04,02,14,57,18.70
2019,04,02,14,58,18.70
2019,04,02,14,59,18.70
2019,04,02,15,00,18.70
2019,04,02,15,01,18.60
2019,04,02,15,02,18.60
2019,04,02,15,03,18.60
2019,04,02,15,04,18.60
2019,04,02,15,05,18.60
2019,04,02,15,06,18.60
2019,04,02,15,07,18.60
2019,04,02,15,08,18.60
2019,04,02,15,09,18.50
2019,04,02,15,10,18.50
2019,04,02,15,11,18.50
2019,04,02,15,12,18.60
2019,04,02,15,13,18.60
2019,04,02,15,14,18.50
2019,04,02,15,15,18.50
2019,04,02,15,16,18.50
2019,04,02,15,17,18.50
2019,04,02,15,18,18.50
2019,04,02,15,19,18.50
2019,04,02,15,20,18.50
2019,04,02,15,21,18.50
2019,04,02,15,22,18.60
2019,04,02,15,23,18.60
2019,04,02,15,24,18.60
2019,04,02,15,25,18.60
2019,04,02,15,26,18.60
2019,04,02,15,27,18.50
2019,04,02,15,28,18.50
2019,04,02,15,29,18.50
2019,04,02,15,30,18.50
2019,04,02,15,31,18.40
2019,04,02,15,32,18.40
2019,04,02,15,33,18.40
2019,04,02,15,34,18.40
2019,04,02,15,35,18.40
2019,04,02,15,36,18.40
2019,04,02,15,37,18.40
2019,04,02,15,38,18.40
2019,04,02,15,39,18.40
2019,04,02,15,40,18.40
2019,04,02,15,41,18.40
2019,04,02,15,42,18.40
2019,04,02,15,43,18.40
2019,04,02,15,44,18.40
2019,04,02,15,45,18.40
2019,04,02,15,46,18.40
2019,04,02,15,47,18.50
2019,04,02,15,48,18.50
2019,04,02,15,49,18.50
2019,04,02,15,50,18.60
2019,04,02,15,51,18.60
2019,04,02,15,52,18.60
2019,04,02,15,53,18.60
2019,04,02,15,54,18.60
2019,04,02,15,55,18.60
2019,04,02,15,56,18.60
2019,04,02,15,57,18.60
2019,04,02,15,58,18.60
2019,04,02,15,59,18.60
2019,04,02,16,00,18.50
2019,04,02,16,01,18.50
2019,04,02,16,02,18.50
2019,04,02,16,03,18.50
2019,04,02,16,04,18.50
2019,04,02,16,05,18.50
2019,04,02,16,06,18.50
2019,04,02,16,07,18.40
2019,04,02,16,08,18.40
2019,04,02,16,09,18.40
2019,04,02,16,10,18.40
2019,04,02,16,11,18.40
2019,04,02,16,12,18.30
2019,04,02,16,13,18.30
2019,04,02,16,14,18.30
2019,04,02,16,15,18.30
2019,04,02,16,16,18.30
2019,04,02,16,17,18.30
2019,04,02,16,18,18.30
2019,04,02,16,19,18.30
2019,04,02,16,20,18.30
2019,04,02,16,21,18.30
2019,04,02,16,22,18.30
2019,04,02,16,23,18.30
2019,04,02,16,24,18.30
2019,04,02,16,25,18.30
2019,04,02,16,26,18.40
2019,04,02,16,27,18.30
2019,04,02,16,28,18.30
2019,04,02,16,29,18.30
2019,04,02,16,30,18.30
2019,04,02,16,31,18.30
2019,04,02,16,32,18.30
2019,04,02,16,33,18.30
2019,04,02,16,34,18.30
2019,04,02,16,35,18.30
2019,04,02,16,36,18.30
2019,04,02,16,37,18.30
2019,04,02,16,38,18.30
2019,04,02,16,39,18.30
2019,04,02,16,40,18.30
2019,04,02,16,41,18.30
2019,04,02,16,42,18.30
2019,04,02,16,43,18.30
2019,04,02,16,44,18.30
2019,04,02,16,45,18.30
2019,04,02,16,46,18.30
2019,04,02,16,47,18.30
2019,04,02,16,48,18.30
2019,04,02,16,49,18.30
2019,04,02,16,50,18.30
2019,04,02,16,51,18.30
2019,04,02,16,52,18.20
2019,04,02,16,53,18.20
2019,04,02,16,54,18.20
2019,04,02,16,55,18.20
2019,04,02,16,56,18.20
2019,04,02,16,57,18.20
2019,04,02,16,58,18.20
2019,04,02,16,59,18.20
2019,04,02,17,00,18.20
2019,04,02,17,01,18.10
2019,04,02,17,02,18.10
2019,04,02,17,03,18.10
2019,04,02,17,04,18.10
2019,04,02,17,05,18.10
2019,04,02,17,06,18.10
2019,04,02,17,07,18.10
2019,04,02,17,08,18.10
2019,04,02,17,09,18.10
2019,04,02,17,10,18.10
2019,04,02,17,11,18.10
2019,04,02,17,12,18.10
2019,04,02,17,13,18.10
2019,04,02,17,14,18.10
2019,04,02,17,15,18.10
2019,04,02,17,16,18.10
2019,04,02,17,17,18.10
2019,04,02,17,18,18.10
2019,04,02,17,19,18.00
2019,04,02,17,20,18.00
2019,04,02,17,21,18.00
2019,04,02,17,22,18.00
2019,04,02,17,23,18.00
2019,04,02,17,24,18.00
2019,04,02,17,25,18.00
2019,04,02,17,26,17.90
2019,04,02,17,27,17.90
2019,04,02,17,28,17.90
2019,04,02,17,29,17.90
2019,04,02,17,30,17.90
2019,04,02,17,31,17.90
2019,04,02,17,32,17.90
2019,04,02,17,33,17.90
2019,04,02,17,34,17.90
2019,04,02,17,35,18.00
2019,04,02,17,36,18.00
2019,04,02,17,37,18.00
2019,04,02,17,38,18.00
2019,04,02,17,39,18.00
2019,04,02,17,40,18.00
2019,04,02,17,41,18.00
2019,04,02,17,42,18.00
2019,04,02,17,43,18.00
2019,04,02,17,44,18.00